Time,TemperatureF,DewpointF,PressureIn,WindDirection,WindDirectionDegrees,WindSpeedMPH,WindSpeedGustMPH,Humidity,HourlyPrecipIn,Conditions,Clouds,dailyrainin,SoftwareType,DateUTC
2013-02-15 00:01:00,59.2,58.1,30.01,NE,44,0.0,3.0,96,0.00,,,0.00,meteohub,2013-02-15 05:01:00,
2013-02-15 00:06:00,59.2,58.1,30.01,NE,44,0.0,2.0,96,0.00,,,0.00,meteohub,2013-02-15 05:06:00,
2013-02-15 00:11:00,59.0,57.9,30.00,NE,44,0.0,2.0,96,0.00,,,0.00,meteohub,2013-02-15 05:11:00,
2013-02-15 00:16:00,59.0,57.9,30.01,North,11,0.0,2.0,96,0.00,,,0.00,meteohub,2013-02-15 05:16:00,
2013-02-15 00:21:00,59.0,57.9,30.01,North,11,1.0,2.0,96,0.00,,,0.00,meteohub,2013-02-15 05:21:00,
2013-02-15 00:26:00,59.0,57.9,30.01,North,355,2.0,2.0,96,0.00,,,0.00,meteohub,2013-02-15 05:26:00,
2013-02-15 00:31:00,58.8,57.7,30.01,North,355,0.0,4.0,96,0.00,,,0.00,meteohub,2013-02-15 05:31:00,
2013-02-15 00:36:00,58.8,57.7,30.01,NW,325,0.0,4.0,96,0.00,,,0.00,meteohub,2013-02-15 05:36:00,
2013-02-15 00:41:00,58.8,57.7,30.01,NW,325,1.0,4.0,96,0.00,,,0.00,meteohub,2013-02-15 05:41:00,
2013-02-15 00:46:00,58.8,57.7,30.02,NNW,335,2.0,5.0,96,0.00,,,0.00,meteohub,2013-02-15 05:46:00,
2013-02-15 00:51:00,58.8,57.7,30.02,NNW,340,3.0,5.0,96,0.00,,,0.00,meteohub,2013-02-15 05:51:00,
2013-02-15 00:56:00,58.6,57.6,30.02,NNW,341,2.0,5.0,96,0.00,,,0.00,meteohub,2013-02-15 05:56:00,
2013-02-15 01:01:00,58.6,57.6,30.02,NNW,337,0.0,6.0,96,0.00,,,0.00,meteohub,2013-02-15 06:01:00,
2013-02-15 01:06:00,58.5,57.4,30.02,NNE,30,1.0,6.0,96,0.00,,,0.00,meteohub,2013-02-15 06:06:00,
2013-02-15 01:11:00,58.3,56.8,30.04,North,355,0.0,5.0,95,0.00,,,0.00,meteohub,2013-02-15 06:11:00,
2013-02-15 01:16:00,58.3,56.8,30.03,North,355,1.0,5.0,95,0.00,,,0.00,meteohub,2013-02-15 06:16:00,
2013-02-15 01:21:00,58.1,56.7,30.04,North,5,2.0,4.0,95,0.00,,,0.00,meteohub,2013-02-15 06:21:00,
2013-02-15 01:26:00,57.9,56.5,30.04,North,5,0.0,3.0,95,0.00,,,0.00,meteohub,2013-02-15 06:26:00,
2013-02-15 01:31:00,57.7,56.3,30.04,NW,323,1.0,3.0,95,0.00,,,0.00,meteohub,2013-02-15 06:31:00,
2013-02-15 01:36:00,57.7,56.3,30.04,NNW,337,1.0,4.0,95,0.00,,,0.00,meteohub,2013-02-15 06:36:00,
2013-02-15 01:41:00,57.7,56.3,30.04,NNW,346,1.0,4.0,95,0.00,,,0.00,meteohub,2013-02-15 06:41:00,
2013-02-15 01:46:00,57.6,56.1,30.04,NNW,347,0.0,4.0,95,0.00,,,0.00,meteohub,2013-02-15 06:46:00,
2013-02-15 01:51:00,57.6,56.1,30.04,NW,325,0.0,5.0,95,0.00,,,0.00,meteohub,2013-02-15 06:51:00,
2013-02-15 01:56:00,57.6,56.1,30.04,North,5,2.0,5.0,95,0.00,,,0.00,meteohub,2013-02-15 06:56:00,
2013-02-15 02:01:00,57.4,55.9,30.04,NNW,344,3.0,5.0,95,0.00,,,0.00,meteohub,2013-02-15 07:01:00,
2013-02-15 02:06:00,57.4,55.9,30.04,NW,315,1.0,5.0,95,0.00,,,0.00,meteohub,2013-02-15 07:06:00,
2013-02-15 02:11:00,57.4,55.9,30.04,North,350,1.0,5.0,95,0.00,,,0.00,meteohub,2013-02-15 07:11:00,
2013-02-15 02:16:00,57.4,55.9,30.03,North,355,0.0,4.0,95,0.00,,,0.00,meteohub,2013-02-15 07:16:00,
2013-02-15 02:21:00,57.4,55.9,30.04,NNW,336,2.0,4.0,95,0.00,,,0.00,meteohub,2013-02-15 07:21:00,
2013-02-15 02:26:00,57.4,55.9,30.04,NW,307,0.0,3.0,95,0.00,,,0.00,meteohub,2013-02-15 07:26:00,
2013-02-15 02:31:00,57.2,55.8,30.03,North,355,3.0,3.0,95,0.00,,,0.00,meteohub,2013-02-15 07:31:00,
2013-02-15 02:36:00,57.2,55.8,30.02,NNW,340,0.0,4.0,95,0.00,,,0.00,meteohub,2013-02-15 07:36:00,
2013-02-15 02:41:00,57.0,55.9,30.01,North,0,0.0,4.0,96,0.00,,,0.00,meteohub,2013-02-15 07:41:00,
2013-02-15 02:46:00,57.2,56.1,30.00,North,5,2.0,4.0,96,0.00,,,0.00,meteohub,2013-02-15 07:46:00,
2013-02-15 02:51:00,57.0,55.9,30.00,NNW,333,1.0,4.0,96,0.00,,,0.00,meteohub,2013-02-15 07:51:00,
2013-02-15 02:56:00,57.0,55.9,30.00,NNE,22,0.0,4.0,96,0.00,,,0.00,meteohub,2013-02-15 07:56:00,
2013-02-15 03:01:00,57.0,55.9,30.01,NNE,22,0.0,4.0,96,0.00,,,0.00,meteohub,2013-02-15 08:01:00,
2013-02-15 03:06:00,57.0,55.9,30.02,NNE,17,2.0,4.0,96,0.00,,,0.00,meteohub,2013-02-15 08:06:00,
2013-02-15 03:11:00,57.0,55.9,30.01,North,5,1.0,3.0,96,0.00,,,0.00,meteohub,2013-02-15 08:11:00,
2013-02-15 03:16:00,57.0,55.9,30.01,NW,326,0.0,3.0,96,0.00,,,0.00,meteohub,2013-02-15 08:16:00,
2013-02-15 03:21:00,57.0,55.9,30.01,NW,325,3.0,3.0,96,0.00,,,0.00,meteohub,2013-02-15 08:21:00,
2013-02-15 03:26:00,57.0,55.9,30.01,NNW,345,2.0,4.0,96,0.00,,,0.00,meteohub,2013-02-15 08:26:00,
2013-02-15 03:31:00,57.0,55.9,30.01,NNW,330,1.0,4.0,96,0.00,,,0.00,meteohub,2013-02-15 08:31:00,
2013-02-15 03:36:00,57.0,55.9,30.02,NNW,330,0.0,4.0,96,0.00,,,0.00,meteohub,2013-02-15 08:36:00,
2013-02-15 03:41:00,57.0,55.9,30.01,NNW,329,0.0,4.0,96,0.00,,,0.00,meteohub,2013-02-15 08:41:00,
2013-02-15 03:46:00,57.2,56.1,30.01,NNW,329,0.0,4.0,96,0.00,,,0.00,meteohub,2013-02-15 08:46:00,
2013-02-15 03:51:00,57.2,56.1,30.02,NNW,338,1.0,4.0,96,0.00,,,0.00,meteohub,2013-02-15 08:51:00,
2013-02-15 03:56:00,57.2,56.1,30.01,NNW,340,1.0,4.0,96,0.00,,,0.00,meteohub,2013-02-15 08:56:00,
2013-02-15 04:01:00,57.0,55.9,30.01,NNE,17,0.0,5.0,96,0.01,,,0.01,meteohub,2013-02-15 09:01:00,
2013-02-15 04:06:00,57.0,55.9,30.01,North,9,4.0,5.0,96,0.01,,,0.01,meteohub,2013-02-15 09:06:00,
2013-02-15 04:11:00,56.8,55.8,30.01,NE,44,1.0,5.0,96,0.01,,,0.01,meteohub,2013-02-15 09:11:00,
2013-02-15 04:16:00,56.8,55.8,30.01,NW,321,1.0,5.0,96,0.01,,,0.01,meteohub,2013-02-15 09:16:00,
2013-02-15 04:21:00,56.7,55.6,30.01,North,355,0.0,6.0,96,0.01,,,0.01,meteohub,2013-02-15 09:21:00,
2013-02-15 04:26:00,56.7,55.6,30.01,NNE,19,0.0,6.0,96,0.01,,,0.01,meteohub,2013-02-15 09:26:00,
2013-02-15 04:31:00,56.5,55.0,30.03,North,5,2.0,6.0,95,0.01,,,0.01,meteohub,2013-02-15 09:31:00,
2013-02-15 04:36:00,56.5,55.0,30.03,North,350,2.0,6.0,95,0.01,,,0.01,meteohub,2013-02-15 09:36:00,
2013-02-15 04:41:00,56.5,55.0,30.01,North,10,2.0,4.0,95,0.01,,,0.01,meteohub,2013-02-15 09:41:00,
2013-02-15 04:46:00,56.1,54.7,30.01,NNE,26,1.0,7.0,95,0.01,,,0.01,meteohub,2013-02-15 09:46:00,
2013-02-15 04:51:00,56.1,54.7,30.02,North,350,2.0,7.0,95,0.01,,,0.01,meteohub,2013-02-15 09:51:00,
2013-02-15 04:56:00,56.1,54.7,30.01,North,355,0.0,7.0,95,0.00,,,0.01,meteohub,2013-02-15 09:56:00,
2013-02-15 05:01:00,55.9,54.9,30.01,North,0,3.0,5.0,96,0.00,,,0.01,meteohub,2013-02-15 10:01:00,
2013-02-15 05:06:00,55.8,54.3,30.01,North,355,1.0,5.0,95,0.00,,,0.01,meteohub,2013-02-15 10:06:00,
2013-02-15 05:11:00,55.8,54.3,30.02,North,5,0.0,5.0,95,0.00,,,0.01,meteohub,2013-02-15 10:11:00,
2013-02-15 05:16:00,55.8,54.3,30.02,NNW,332,0.0,5.0,95,0.00,,,0.01,meteohub,2013-02-15 10:16:00,
2013-02-15 05:21:00,55.8,54.3,30.02,NNW,347,1.0,5.0,95,0.00,,,0.01,meteohub,2013-02-15 10:21:00,
2013-02-15 05:26:00,55.8,54.3,30.02,North,9,3.0,5.0,95,0.00,,,0.01,meteohub,2013-02-15 10:26:00,
2013-02-15 05:31:00,55.6,54.1,30.03,North,9,0.0,5.0,95,0.00,,,0.01,meteohub,2013-02-15 10:31:00,
2013-02-15 05:36:00,55.8,54.3,30.02,North,5,0.0,5.0,95,0.00,,,0.01,meteohub,2013-02-15 10:36:00,
2013-02-15 05:41:00,55.8,54.3,30.02,NNW,341,2.0,5.0,95,0.00,,,0.01,meteohub,2013-02-15 10:41:00,
2013-02-15 05:46:00,55.6,54.1,30.02,NNW,342,2.0,4.0,95,0.00,,,0.01,meteohub,2013-02-15 10:46:00,
2013-02-15 05:51:00,55.6,54.1,30.03,North,350,3.0,4.0,95,0.00,,,0.01,meteohub,2013-02-15 10:51:00,
2013-02-15 05:56:00,55.6,54.1,30.03,North,11,1.0,5.0,95,0.00,,,0.01,meteohub,2013-02-15 10:56:00,
2013-02-15 06:01:00,55.6,54.1,30.03,NNW,346,0.0,5.0,95,0.00,,,0.01,meteohub,2013-02-15 11:01:00,
2013-02-15 06:06:00,55.6,54.1,30.03,NNW,348,2.0,5.0,95,0.00,,,0.01,meteohub,2013-02-15 11:06:00,
2013-02-15 06:11:00,55.6,54.1,30.03,NNE,20,1.0,4.0,95,0.00,,,0.01,meteohub,2013-02-15 11:11:00,
2013-02-15 06:16:00,55.6,54.1,30.03,NNW,346,2.0,4.0,95,0.00,,,0.01,meteohub,2013-02-15 11:16:00,
2013-02-15 06:21:00,55.6,54.1,30.04,North,0,0.0,5.0,95,0.00,,,0.01,meteohub,2013-02-15 11:21:00,
2013-02-15 06:26:00,55.8,54.3,30.04,NNW,340,0.0,5.0,95,0.00,,,0.01,meteohub,2013-02-15 11:26:00,
2013-02-15 06:31:00,55.6,54.1,30.04,NE,45,0.0,5.0,95,0.00,,,0.01,meteohub,2013-02-15 11:31:00,
2013-02-15 06:36:00,55.6,54.1,30.04,North,5,1.0,6.0,95,0.00,,,0.01,meteohub,2013-02-15 11:36:00,
2013-02-15 06:41:00,55.6,54.1,30.05,North,5,0.0,6.0,95,0.00,,,0.01,meteohub,2013-02-15 11:41:00,
2013-02-15 06:46:00,55.6,54.1,30.05,North,5,1.0,3.0,95,0.00,,,0.01,meteohub,2013-02-15 11:46:00,
2013-02-15 06:51:00,55.6,54.1,30.06,North,5,1.0,3.0,95,0.00,,,0.01,meteohub,2013-02-15 11:51:00,
2013-02-15 06:56:00,55.6,54.1,30.06,NNW,347,2.0,3.0,95,0.00,,,0.01,meteohub,2013-02-15 11:56:00,
2013-02-15 07:01:00,55.6,54.1,30.06,NNW,340,2.0,4.0,95,0.00,,,0.01,meteohub,2013-02-15 12:01:00,
2013-02-15 07:06:00,55.6,54.1,30.06,NE,36,1.0,6.0,95,0.00,,,0.01,meteohub,2013-02-15 12:06:00,
2013-02-15 07:11:00,55.6,54.1,30.05,North,0,3.0,6.0,95,0.00,,,0.01,meteohub,2013-02-15 12:11:00,
2013-02-15 07:16:00,55.6,54.1,30.04,North,5,0.0,6.0,95,0.00,,,0.01,meteohub,2013-02-15 12:16:00,
2013-02-15 07:21:00,55.6,54.1,30.06,NW,309,2.0,5.0,95,0.00,,,0.01,meteohub,2013-02-15 12:21:00,
2013-02-15 07:26:00,55.2,53.8,30.04,North,355,4.0,5.0,95,0.00,,,0.01,meteohub,2013-02-15 12:26:00,
2013-02-15 07:31:00,55.2,53.8,30.04,NW,321,2.0,7.0,95,0.00,,,0.01,meteohub,2013-02-15 12:31:00,
2013-02-15 07:36:00,55.2,53.8,30.06,NNW,333,2.0,7.0,95,0.00,,,0.01,meteohub,2013-02-15 12:36:00,
2013-02-15 07:41:00,55.0,53.6,30.06,North,351,0.0,6.0,95,0.00,,,0.01,meteohub,2013-02-15 12:41:00,
2013-02-15 07:46:00,55.0,53.6,30.07,North,0,2.0,6.0,95,0.00,,,0.01,meteohub,2013-02-15 12:46:00,
2013-02-15 07:51:00,55.0,53.6,30.07,NNW,332,3.0,6.0,95,0.00,,,0.01,meteohub,2013-02-15 12:51:00,
2013-02-15 07:56:00,54.9,53.4,30.07,North,351,2.0,5.0,95,0.00,,,0.01,meteohub,2013-02-15 12:56:00,
2013-02-15 08:01:00,54.9,53.4,30.07,NNW,336,1.0,6.0,95,0.00,,,0.01,meteohub,2013-02-15 13:01:00,
2013-02-15 08:06:00,54.9,53.4,30.08,NNW,334,2.0,6.0,95,0.00,,,0.01,meteohub,2013-02-15 13:06:00,
2013-02-15 08:11:00,55.0,53.6,30.08,NNW,346,2.0,6.0,95,0.00,,,0.01,meteohub,2013-02-15 13:11:00,
2013-02-15 08:16:00,55.0,53.6,30.08,NW,325,2.0,6.0,95,0.00,,,0.01,meteohub,2013-02-15 13:16:00,
2013-02-15 08:21:00,55.0,53.6,30.08,NNE,21,0.0,6.0,95,0.00,,,0.01,meteohub,2013-02-15 13:21:00,
2013-02-15 08:26:00,55.0,53.6,30.08,NNW,342,2.0,5.0,95,0.00,,,0.01,meteohub,2013-02-15 13:26:00,
2013-02-15 08:31:00,55.0,53.6,30.07,NNW,335,2.0,5.0,95,0.00,,,0.01,meteohub,2013-02-15 13:31:00,
2013-02-15 08:36:00,55.0,53.6,30.08,NW,306,0.0,4.0,95,0.00,,,0.01,meteohub,2013-02-15 13:36:00,
2013-02-15 08:41:00,55.0,53.6,30.08,NNW,343,3.0,5.0,95,0.00,,,0.01,meteohub,2013-02-15 13:41:00,
2013-02-15 08:46:00,55.0,53.6,30.09,North,5,1.0,5.0,95,0.00,,,0.01,meteohub,2013-02-15 13:46:00,
2013-02-15 08:51:00,55.0,53.6,30.09,NNW,327,0.0,4.0,95,0.00,,,0.01,meteohub,2013-02-15 13:51:00,
2013-02-15 08:56:00,55.0,53.6,30.09,NE,40,2.0,8.0,95,0.00,,,0.01,meteohub,2013-02-15 13:56:00,
2013-02-15 09:01:00,55.0,53.6,30.09,North,9,2.0,8.0,95,0.00,,,0.01,meteohub,2013-02-15 14:01:00,
2013-02-15 09:06:00,55.0,53.4,30.09,North,0,1.0,5.0,94,0.00,,,0.01,meteohub,2013-02-15 14:06:00,
2013-02-15 09:11:00,55.0,53.4,30.09,North,11,4.0,5.0,94,0.00,,,0.01,meteohub,2013-02-15 14:11:00,
2013-02-15 09:16:00,55.0,53.4,30.09,North,355,0.0,6.0,94,0.00,,,0.01,meteohub,2013-02-15 14:16:00,
2013-02-15 09:21:00,55.2,53.6,30.09,North,355,4.0,6.0,94,0.00,,,0.01,meteohub,2013-02-15 14:21:00,
2013-02-15 09:26:00,55.0,53.1,30.09,NNW,346,2.0,6.0,93,0.00,,,0.01,meteohub,2013-02-15 14:26:00,
2013-02-15 09:31:00,55.0,53.1,30.09,NNW,344,0.0,6.0,93,0.00,,,0.01,meteohub,2013-02-15 14:31:00,
2013-02-15 09:36:00,55.2,53.2,30.09,North,5,3.0,6.0,93,0.00,,,0.01,meteohub,2013-02-15 14:36:00,
2013-02-15 09:41:00,55.2,52.9,30.09,NNE,26,2.0,6.0,92,0.00,,,0.01,meteohub,2013-02-15 14:41:00,
2013-02-15 09:46:00,55.8,53.4,30.09,North,9,1.0,5.0,92,0.00,,,0.01,meteohub,2013-02-15 14:46:00,
2013-02-15 09:51:00,55.8,53.2,30.09,NNW,344,0.0,5.0,91,0.00,,,0.01,meteohub,2013-02-15 14:51:00,
2013-02-15 09:56:00,55.8,53.2,30.09,NNW,340,4.0,7.0,91,0.00,,,0.01,meteohub,2013-02-15 14:56:00,
2013-02-15 10:01:00,55.8,53.2,30.09,North,5,4.0,7.0,91,0.00,,,0.01,meteohub,2013-02-15 15:01:00,
2013-02-15 10:06:00,55.8,53.2,30.09,NNW,333,1.0,5.0,91,0.00,,,0.01,meteohub,2013-02-15 15:06:00,
2013-02-15 10:11:00,55.8,53.2,30.09,NNW,345,0.0,5.0,91,0.00,,,0.01,meteohub,2013-02-15 15:11:00,
2013-02-15 10:16:00,55.8,53.2,30.10,NW,319,0.0,5.0,91,0.00,,,0.01,meteohub,2013-02-15 15:16:00,
2013-02-15 10:21:00,55.9,53.4,30.10,NNW,348,2.0,5.0,91,0.00,,,0.01,meteohub,2013-02-15 15:21:00,
2013-02-15 10:26:00,55.9,53.1,30.10,North,355,4.0,5.0,90,0.00,,,0.01,meteohub,2013-02-15 15:26:00,
2013-02-15 10:31:00,55.6,52.7,30.09,NW,323,2.0,5.0,90,0.00,,,0.01,meteohub,2013-02-15 15:31:00,
2013-02-15 10:36:00,55.8,52.9,30.09,ENE,57,0.0,5.0,90,0.00,,,0.01,meteohub,2013-02-15 15:36:00,
2013-02-15 10:41:00,55.9,53.1,30.10,North,0,2.0,5.0,90,0.00,,,0.01,meteohub,2013-02-15 15:41:00,
2013-02-15 10:46:00,56.1,52.9,30.10,NNW,338,3.0,4.0,89,0.00,,,0.01,meteohub,2013-02-15 15:46:00,
2013-02-15 10:51:00,56.1,52.9,30.10,NNW,344,0.0,4.0,89,0.00,,,0.01,meteohub,2013-02-15 15:51:00,
2013-02-15 10:56:00,56.7,53.4,30.10,North,355,0.0,4.0,89,0.00,,,0.01,meteohub,2013-02-15 15:56:00,
2013-02-15 11:01:00,57.2,53.4,30.10,North,355,1.0,3.0,87,0.00,,,0.01,meteohub,2013-02-15 16:01:00,
2013-02-15 11:06:00,57.7,54.0,30.10,North,10,1.0,3.0,87,0.00,,,0.01,meteohub,2013-02-15 16:06:00,
2013-02-15 11:11:00,58.3,53.4,30.10,NE,35,2.0,4.0,84,0.00,,,0.01,meteohub,2013-02-15 16:11:00,
2013-02-15 11:16:00,58.6,53.2,30.10,North,349,0.0,5.0,82,0.00,,,0.01,meteohub,2013-02-15 16:16:00,
2013-02-15 11:21:00,59.0,53.6,30.10,NNW,334,2.0,5.0,82,0.00,,,0.01,meteohub,2013-02-15 16:21:00,
2013-02-15 11:26:00,59.4,53.8,30.10,NNE,22,1.0,5.0,82,0.00,,,0.01,meteohub,2013-02-15 16:26:00,
2013-02-15 11:31:00,60.1,53.6,30.10,NNE,31,0.0,5.0,79,0.00,,,0.01,meteohub,2013-02-15 16:31:00,
2013-02-15 11:36:00,60.1,53.2,30.09,NNE,23,1.0,4.0,78,0.00,,,0.01,meteohub,2013-02-15 16:36:00,
2013-02-15 11:41:00,59.4,52.9,30.09,North,355,2.0,4.0,79,0.00,,,0.01,meteohub,2013-02-15 16:41:00,
2013-02-15 11:46:00,59.4,53.2,30.09,North,355,0.0,4.0,80,0.00,,,0.01,meteohub,2013-02-15 16:46:00,
2013-02-15 11:51:00,59.5,53.1,30.09,NNW,335,0.0,4.0,79,0.00,,,0.01,meteohub,2013-02-15 16:51:00,
2013-02-15 11:56:00,59.5,53.1,30.09,NNW,334,0.0,4.0,79,0.00,,,0.01,meteohub,2013-02-15 16:56:00,
2013-02-15 12:01:00,59.7,52.9,30.08,NE,36,0.0,4.0,78,0.00,,,0.01,meteohub,2013-02-15 17:01:00,
2013-02-15 12:06:00,60.3,53.4,30.09,NE,36,1.0,4.0,78,0.00,,,0.01,meteohub,2013-02-15 17:06:00,
2013-02-15 12:11:00,60.6,53.4,30.08,NNE,26,0.0,4.0,77,0.00,,,0.01,meteohub,2013-02-15 17:11:00,
2013-02-15 12:16:00,60.8,54.0,30.08,NNW,334,0.0,5.0,78,0.00,,,0.01,meteohub,2013-02-15 17:16:00,
2013-02-15 12:21:00,61.0,53.4,30.08,NNW,331,1.0,5.0,76,0.00,,,0.01,meteohub,2013-02-15 17:21:00,
2013-02-15 12:26:00,61.2,54.7,30.08,NNE,20,1.0,5.0,79,0.00,,,0.01,meteohub,2013-02-15 17:26:00,
2013-02-15 12:31:00,61.3,54.5,30.08,SSW,212,3.0,4.0,78,0.00,,,0.01,meteohub,2013-02-15 17:31:00,
2013-02-15 12:36:00,61.7,54.9,30.06,NNW,329,1.0,4.0,78,0.00,,,0.01,meteohub,2013-02-15 17:36:00,
2013-02-15 12:41:00,63.0,55.6,30.07,South,190,3.0,4.0,77,0.00,,,0.01,meteohub,2013-02-15 17:41:00,
2013-02-15 12:46:00,64.0,55.6,30.07,East,91,1.0,4.0,74,0.00,,,0.01,meteohub,2013-02-15 17:46:00,
2013-02-15 12:51:00,64.6,56.1,30.06,SW,230,2.0,4.0,74,0.00,,,0.01,meteohub,2013-02-15 17:51:00,
2013-02-15 12:56:00,64.9,55.8,30.06,WNW,302,3.0,4.0,72,0.00,,,0.01,meteohub,2013-02-15 17:56:00,
2013-02-15 13:01:00,64.6,55.4,30.05,NNW,336,4.0,5.0,72,0.00,,,0.01,meteohub,2013-02-15 18:01:00,
2013-02-15 13:06:00,64.0,55.6,30.05,SW,227,4.0,5.0,74,0.00,,,0.01,meteohub,2013-02-15 18:06:00,
2013-02-15 13:11:00,63.3,55.2,30.05,South,187,3.0,5.0,75,0.00,,,0.01,meteohub,2013-02-15 18:11:00,
2013-02-15 13:16:00,62.8,54.7,30.05,NNW,339,3.0,5.0,75,0.00,,,0.01,meteohub,2013-02-15 18:16:00,
2013-02-15 13:21:00,62.2,54.9,30.05,NNE,25,0.0,6.0,77,0.00,,,0.01,meteohub,2013-02-15 18:21:00,
2013-02-15 13:26:00,62.8,55.0,30.04,WSW,242,0.0,6.0,76,0.00,,,0.01,meteohub,2013-02-15 18:26:00,
2013-02-15 13:31:00,64.0,55.6,30.04,SSW,206,0.0,6.0,74,0.00,,,0.01,meteohub,2013-02-15 18:31:00,
2013-02-15 13:36:00,65.1,55.9,30.04,SW,226,2.0,4.0,72,0.00,,,0.01,meteohub,2013-02-15 18:36:00,
2013-02-15 13:41:00,65.5,55.4,30.04,NW,323,0.0,3.0,70,0.00,,,0.01,meteohub,2013-02-15 18:41:00,
2013-02-15 13:46:00,66.2,56.1,30.03,SW,235,0.0,3.0,70,0.00,,,0.01,meteohub,2013-02-15 18:46:00,
2013-02-15 13:51:00,66.7,55.8,30.03,NW,304,0.0,4.0,68,0.00,,,0.01,meteohub,2013-02-15 18:51:00,
2013-02-15 13:56:00,66.9,55.9,30.02,SW,224,0.0,4.0,68,0.00,,,0.01,meteohub,2013-02-15 18:56:00,
2013-02-15 14:01:00,67.3,56.3,30.02,WNW,301,1.0,3.0,68,0.00,,,0.01,meteohub,2013-02-15 19:01:00,
2013-02-15 14:06:00,67.3,56.3,30.02,SW,229,2.0,4.0,68,0.00,,,0.01,meteohub,2013-02-15 19:06:00,
2013-02-15 14:11:00,66.9,55.9,30.02,WNW,302,2.0,4.0,68,0.00,,,0.01,meteohub,2013-02-15 19:11:00,
2013-02-15 14:16:00,66.4,56.3,30.02,SW,222,0.0,5.0,70,0.00,,,0.01,meteohub,2013-02-15 19:16:00,
2013-02-15 14:21:00,66.0,56.3,30.01,North,355,3.0,7.0,71,0.00,,,0.01,meteohub,2013-02-15 19:21:00,
2013-02-15 14:26:00,65.8,56.1,30.01,SW,232,4.0,7.0,71,0.00,,,0.01,meteohub,2013-02-15 19:26:00,
2013-02-15 14:31:00,66.0,55.9,30.01,WSW,254,3.0,6.0,70,0.00,,,0.01,meteohub,2013-02-15 19:31:00,
2013-02-15 14:36:00,65.7,55.9,30.01,South,178,3.0,6.0,71,0.00,,,0.01,meteohub,2013-02-15 19:36:00,
2013-02-15 14:41:00,64.8,55.9,30.01,SW,215,2.0,6.0,73,0.00,,,0.01,meteohub,2013-02-15 19:41:00,
2013-02-15 14:46:00,64.8,55.6,30.01,NNW,348,0.0,6.0,72,0.00,,,0.01,meteohub,2013-02-15 19:46:00,
2013-02-15 14:51:00,64.9,55.8,30.00,SW,225,4.0,6.0,72,0.00,,,0.01,meteohub,2013-02-15 19:51:00,
2013-02-15 14:56:00,64.9,56.1,30.00,SW,221,2.0,6.0,73,0.00,,,0.01,meteohub,2013-02-15 19:56:00,
2013-02-15 15:01:00,64.9,55.8,30.00,NNW,338,1.0,6.0,72,0.00,,,0.01,meteohub,2013-02-15 20:01:00,
2013-02-15 15:06:00,64.4,55.6,30.00,NW,317,1.0,6.0,73,0.00,,,0.01,meteohub,2013-02-15 20:06:00,
2013-02-15 15:11:00,64.2,55.8,30.00,SSW,207,3.0,5.0,74,0.00,,,0.01,meteohub,2013-02-15 20:11:00,
2013-02-15 15:16:00,64.0,55.9,30.00,SW,221,1.0,5.0,75,0.00,,,0.01,meteohub,2013-02-15 20:16:00,
2013-02-15 15:21:00,64.0,56.3,30.00,East,84,0.0,5.0,76,0.00,,,0.01,meteohub,2013-02-15 20:21:00,
2013-02-15 15:26:00,63.7,55.6,30.00,SW,220,0.0,5.0,75,0.00,,,0.01,meteohub,2013-02-15 20:26:00,
2013-02-15 15:31:00,63.5,55.8,30.00,South,182,1.0,5.0,76,0.00,,,0.01,meteohub,2013-02-15 20:31:00,
2013-02-15 15:36:00,63.7,55.9,30.00,SW,234,5.0,6.0,76,0.00,,,0.01,meteohub,2013-02-15 20:36:00,
2013-02-15 15:41:00,64.2,56.1,30.01,SSW,209,2.0,6.0,75,0.00,,,0.01,meteohub,2013-02-15 20:41:00,
2013-02-15 15:47:00,64.0,55.9,30.01,North,9,1.0,7.0,75,0.00,,,0.01,meteohub,2013-02-15 20:47:00,
2013-02-15 15:56:00,64.0,56.3,30.00,NW,317,3.0,7.0,76,0.00,,,0.01,meteohub,2013-02-15 20:56:00,
2013-02-15 16:01:00,64.2,55.8,30.01,West,259,1.0,7.0,74,0.00,,,0.01,meteohub,2013-02-15 21:01:00,
2013-02-15 16:06:00,64.2,55.4,30.01,NNW,342,4.0,7.0,73,0.00,,,0.01,meteohub,2013-02-15 21:06:00,
2013-02-15 16:11:00,64.0,54.9,30.00,NNW,348,4.0,7.0,72,0.00,,,0.01,meteohub,2013-02-15 21:11:00,
2013-02-15 16:16:00,63.0,54.5,30.00,NNW,327,4.0,7.0,74,0.00,,,0.01,meteohub,2013-02-15 21:16:00,
2013-02-15 16:21:00,62.4,54.0,30.00,WNW,303,2.0,8.0,74,0.00,,,0.01,meteohub,2013-02-15 21:21:00,
2013-02-15 16:26:00,62.8,54.3,29.99,NNW,331,1.0,8.0,74,0.00,,,0.01,meteohub,2013-02-15 21:26:00,
2013-02-15 16:31:00,63.0,54.1,30.00,West,263,2.0,7.0,73,0.00,,,0.01,meteohub,2013-02-15 21:31:00,
2013-02-15 16:36:00,62.6,53.8,29.99,NNW,344,1.0,7.0,73,0.00,,,0.01,meteohub,2013-02-15 21:36:00,
2013-02-15 16:41:00,62.6,53.8,29.99,NNW,333,2.0,7.0,73,0.00,,,0.01,meteohub,2013-02-15 21:41:00,
2013-02-15 16:46:00,63.0,53.8,29.99,NNW,333,2.0,7.0,72,0.00,,,0.01,meteohub,2013-02-15 21:46:00,
2013-02-15 16:51:00,63.1,53.2,29.99,SSE,161,1.0,6.0,70,0.00,,,0.01,meteohub,2013-02-15 21:51:00,
2013-02-15 16:56:00,63.0,53.1,29.99,North,5,2.0,8.0,70,0.00,,,0.01,meteohub,2013-02-15 21:56:00,
2013-02-15 17:01:00,62.8,52.9,29.99,North,355,2.0,8.0,70,0.00,,,0.01,meteohub,2013-02-15 22:01:00,
2013-02-15 17:06:00,62.2,52.3,29.99,NW,325,5.0,8.0,70,0.00,,,0.01,meteohub,2013-02-15 22:06:00,
2013-02-15 17:11:00,62.1,52.2,29.99,NW,311,2.0,8.0,70,0.00,,,0.01,meteohub,2013-02-15 22:11:00,
2013-02-15 17:16:00,62.4,52.5,29.99,NNW,330,0.0,8.0,70,0.00,,,0.01,meteohub,2013-02-15 22:16:00,
2013-02-15 17:21:00,62.4,51.8,29.99,South,170,1.0,8.0,68,0.00,,,0.01,meteohub,2013-02-15 22:21:00,
2013-02-15 17:26:00,62.6,52.0,29.99,North,355,1.0,7.0,68,0.00,,,0.01,meteohub,2013-02-15 22:26:00,
2013-02-15 17:31:00,62.8,52.0,29.99,NW,311,1.0,7.0,68,0.00,,,0.01,meteohub,2013-02-15 22:31:00,
2013-02-15 17:36:00,62.4,51.8,29.99,NNW,348,3.0,4.0,68,0.00,,,0.01,meteohub,2013-02-15 22:36:00,
2013-02-15 17:41:00,61.9,52.0,29.99,NW,318,4.0,5.0,70,0.00,,,0.01,meteohub,2013-02-15 22:41:00,
2013-02-15 17:46:00,61.5,51.6,29.99,NNW,327,1.0,5.0,70,0.00,,,0.01,meteohub,2013-02-15 22:46:00,
2013-02-15 17:51:00,61.3,51.8,29.99,NNW,334,1.0,5.0,71,0.00,,,0.01,meteohub,2013-02-15 22:51:00,
2013-02-15 17:56:00,61.3,51.8,29.99,NNW,334,2.0,5.0,71,0.00,,,0.01,meteohub,2013-02-15 22:56:00,
2013-02-15 18:01:00,61.2,52.0,29.99,NW,325,2.0,4.0,72,0.00,,,0.01,meteohub,2013-02-15 23:01:00,
2013-02-15 18:06:00,61.0,52.0,29.99,NNW,337,0.0,5.0,72,0.00,,,0.01,meteohub,2013-02-15 23:06:00,
2013-02-15 18:11:00,60.8,52.2,29.99,NW,322,0.0,5.0,73,0.00,,,0.01,meteohub,2013-02-15 23:11:00,
2013-02-15 18:16:00,60.4,52.2,29.99,NW,321,0.0,5.0,74,0.00,,,0.01,meteohub,2013-02-15 23:16:00,
2013-02-15 18:21:00,60.3,52.0,29.99,NW,323,1.0,4.0,74,0.00,,,0.01,meteohub,2013-02-15 23:21:00,
2013-02-15 18:26:00,60.1,52.2,29.99,NW,324,0.0,5.0,75,0.00,,,0.01,meteohub,2013-02-15 23:26:00,
2013-02-15 18:31:00,59.7,52.2,29.99,NW,323,1.0,5.0,76,0.00,,,0.01,meteohub,2013-02-15 23:31:00,
2013-02-15 18:36:00,59.5,52.0,29.99,NW,323,2.0,3.0,76,0.00,,,0.01,meteohub,2013-02-15 23:36:00,
2013-02-15 18:41:00,59.4,52.2,29.99,NW,323,0.0,2.0,77,0.00,,,0.01,meteohub,2013-02-15 23:41:00,
2013-02-15 18:46:00,59.2,52.3,29.99,NW,323,0.0,2.0,78,0.00,,,0.01,meteohub,2013-02-15 23:46:00,
2013-02-15 18:51:00,58.8,52.0,29.99,NW,323,0.0,2.0,78,0.00,,,0.01,meteohub,2013-02-15 23:51:00,
2013-02-15 18:56:00,58.6,52.2,29.99,NW,323,0.0,2.0,79,0.00,,,0.01,meteohub,2013-02-15 23:56:00,
2013-02-15 19:01:00,58.5,52.0,29.99,NW,323,0.0,2.0,79,0.00,,,0.01,meteohub,2013-02-16 00:01:00,
2013-02-15 19:06:00,58.1,52.0,29.99,NW,323,0.0,1.0,80,0.00,,,0.01,meteohub,2013-02-16 00:06:00,
2013-02-15 19:11:00,57.9,51.8,29.99,NW,323,0.0,1.0,80,0.00,,,0.01,meteohub,2013-02-16 00:11:00,
2013-02-15 19:16:00,57.7,52.0,29.99,NW,323,0.0,1.0,81,0.00,,,0.01,meteohub,2013-02-16 00:16:00,
2013-02-15 19:21:00,57.7,52.0,29.99,NW,323,0.0,1.0,81,0.00,,,0.01,meteohub,2013-02-16 00:21:00,
2013-02-15 19:26:00,57.6,52.2,29.99,NW,323,0.0,1.0,82,0.00,,,0.01,meteohub,2013-02-16 00:26:00,
2013-02-15 19:31:00,57.4,52.3,29.99,NW,323,0.0,1.0,83,0.00,,,0.01,meteohub,2013-02-16 00:31:00,
2013-02-15 19:36:00,57.0,52.0,29.99,NW,323,0.0,1.0,83,0.00,,,0.01,meteohub,2013-02-16 00:36:00,
2013-02-15 19:41:00,56.7,51.8,29.99,NW,323,0.0,1.0,84,0.00,,,0.01,meteohub,2013-02-16 00:41:00,
2013-02-15 19:46:00,56.5,51.6,30.00,NW,325,0.0,2.0,84,0.00,,,0.01,meteohub,2013-02-16 00:46:00,
2013-02-15 19:51:00,56.1,51.6,29.99,NW,325,0.0,2.0,85,0.00,,,0.01,meteohub,2013-02-16 00:51:00,
2013-02-15 19:56:00,56.1,51.6,29.99,NW,325,0.0,2.0,85,0.00,,,0.01,meteohub,2013-02-16 00:56:00,
2013-02-15 20:01:00,55.9,51.8,29.99,NW,325,0.0,1.0,86,0.00,,,0.01,meteohub,2013-02-16 01:01:00,
2013-02-15 20:06:00,55.9,51.8,29.99,NW,325,0.0,1.0,86,0.00,,,0.01,meteohub,2013-02-16 01:06:00,
2013-02-15 20:11:00,55.9,51.8,29.99,NW,325,0.0,1.0,86,0.00,,,0.01,meteohub,2013-02-16 01:11:00,
2013-02-15 20:16:00,55.8,52.0,30.00,NW,325,0.0,1.0,87,0.00,,,0.01,meteohub,2013-02-16 01:16:00,
2013-02-15 20:21:00,55.6,51.8,30.00,NW,325,0.0,1.0,87,0.00,,,0.01,meteohub,2013-02-16 01:21:00,
2013-02-15 20:26:00,55.2,51.4,30.00,NW,325,0.0,0.0,87,0.00,,,0.01,meteohub,2013-02-16 01:26:00,
2013-02-15 20:31:00,55.0,51.3,30.00,NW,325,0.0,0.0,87,0.00,,,0.01,meteohub,2013-02-16 01:31:00,
2013-02-15 20:36:00,54.7,51.3,30.00,NW,325,0.0,0.0,88,0.00,,,0.01,meteohub,2013-02-16 01:36:00,
2013-02-15 20:41:00,54.3,51.1,30.00,NW,325,0.0,0.0,89,0.00,,,0.01,meteohub,2013-02-16 01:41:00,
2013-02-15 20:46:00,54.1,50.9,30.00,NW,325,0.0,0.0,89,0.00,,,0.01,meteohub,2013-02-16 01:46:00,
2013-02-15 20:51:00,54.0,51.1,30.01,NW,325,0.0,0.0,90,0.00,,,0.01,meteohub,2013-02-16 01:51:00,
2013-02-15 20:56:00,53.8,50.9,30.01,NW,325,0.0,0.0,90,0.00,,,0.01,meteohub,2013-02-16 01:56:00,
2013-02-15 21:01:00,53.6,50.7,30.01,NW,325,0.0,0.0,90,0.00,,,0.01,meteohub,2013-02-16 02:01:00,
2013-02-15 21:06:00,53.4,50.9,30.01,NW,325,0.0,0.0,91,0.00,,,0.01,meteohub,2013-02-16 02:06:00,
2013-02-15 21:11:00,53.4,51.1,30.01,NW,325,0.0,0.0,92,0.00,,,0.01,meteohub,2013-02-16 02:11:00,
2013-02-15 21:16:00,53.4,51.1,30.01,NW,325,0.0,0.0,92,0.00,,,0.01,meteohub,2013-02-16 02:16:00,
2013-02-15 21:21:00,53.6,51.3,30.01,NW,325,0.0,1.0,92,0.00,,,0.01,meteohub,2013-02-16 02:21:00,
2013-02-15 21:26:00,53.8,51.4,30.01,NW,325,0.0,1.0,92,0.00,,,0.01,meteohub,2013-02-16 02:26:00,
2013-02-15 21:31:00,54.0,51.6,30.01,NW,325,0.0,1.0,92,0.00,,,0.01,meteohub,2013-02-16 02:31:00,
2013-02-15 21:36:00,54.1,51.8,30.01,NW,325,0.0,1.0,92,0.00,,,0.01,meteohub,2013-02-16 02:36:00,
2013-02-15 21:41:00,54.3,52.0,30.01,NW,325,0.0,1.0,92,0.00,,,0.01,meteohub,2013-02-16 02:41:00,
2013-02-15 21:46:00,54.7,52.2,30.01,NW,325,0.0,1.0,91,0.00,,,0.01,meteohub,2013-02-16 02:46:00,
2013-02-15 21:51:00,54.9,52.3,30.02,NW,325,0.0,1.0,91,0.00,,,0.01,meteohub,2013-02-16 02:51:00,
2013-02-15 21:56:00,55.2,52.3,30.01,NW,325,0.0,1.0,90,0.00,,,0.01,meteohub,2013-02-16 02:56:00,
2013-02-15 22:01:00,55.9,52.5,30.02,NW,325,0.0,2.0,88,0.00,,,0.01,meteohub,2013-02-16 03:01:00,
2013-02-15 22:06:00,56.5,52.7,30.01,NW,325,0.0,2.0,87,0.00,,,0.01,meteohub,2013-02-16 03:06:00,
2013-02-15 22:11:00,56.7,52.5,30.02,North,351,0.0,2.0,86,0.00,,,0.01,meteohub,2013-02-16 03:11:00,
2013-02-15 22:16:00,57.0,52.9,30.02,North,351,0.0,1.0,86,0.00,,,0.01,meteohub,2013-02-16 03:16:00,
2013-02-15 22:21:00,57.2,52.7,30.01,North,351,0.0,1.0,85,0.00,,,0.01,meteohub,2013-02-16 03:21:00,
2013-02-15 22:26:00,57.2,52.7,30.01,North,351,0.0,1.0,85,0.00,,,0.01,meteohub,2013-02-16 03:26:00,
2013-02-15 22:31:00,57.4,52.5,30.01,NNW,348,0.0,2.0,84,0.00,,,0.01,meteohub,2013-02-16 03:31:00,
2013-02-15 22:36:00,57.6,52.5,30.01,NNW,348,0.0,2.0,83,0.00,,,0.01,meteohub,2013-02-16 03:36:00,
2013-02-15 22:41:00,57.7,52.7,30.01,NNW,348,0.0,2.0,83,0.00,,,0.01,meteohub,2013-02-16 03:41:00,
2013-02-15 22:46:00,57.6,52.7,30.01,NNW,348,0.0,2.0,84,0.00,,,0.01,meteohub,2013-02-16 03:46:00,
2013-02-15 22:51:00,57.6,52.7,30.01,NNW,348,0.0,1.0,84,0.00,,,0.01,meteohub,2013-02-16 03:51:00,
2013-02-15 22:56:00,57.6,52.7,30.01,NNW,348,0.0,1.0,84,0.00,,,0.01,meteohub,2013-02-16 03:56:00,
2013-02-15 23:01:00,57.4,52.9,30.01,NNW,348,0.0,1.0,85,0.00,,,0.01,meteohub,2013-02-16 04:01:00,
2013-02-15 23:06:00,57.4,52.9,30.01,NNW,348,0.0,1.0,85,0.00,,,0.01,meteohub,2013-02-16 04:06:00,
2013-02-15 23:11:00,57.2,53.1,30.01,NNW,348,0.0,1.0,86,0.00,,,0.01,meteohub,2013-02-16 04:11:00,
2013-02-15 23:16:00,57.2,52.7,30.01,NNW,348,0.0,0.0,85,0.00,,,0.01,meteohub,2013-02-16 04:16:00,
2013-02-15 23:21:00,57.2,53.1,30.01,NNW,348,0.0,0.0,86,0.00,,,0.01,meteohub,2013-02-16 04:21:00,
2013-02-15 23:26:00,57.2,53.1,30.01,NNW,348,0.0,1.0,86,0.00,,,0.01,meteohub,2013-02-16 04:26:00,
2013-02-15 23:31:00,57.0,52.9,30.01,NNW,348,0.0,1.0,86,0.00,,,0.01,meteohub,2013-02-16 04:31:00,
2013-02-15 23:36:00,57.0,52.9,30.01,NNW,348,0.0,1.0,86,0.00,,,0.01,meteohub,2013-02-16 04:36:00,
2013-02-15 23:41:00,56.8,52.7,30.01,NNW,348,0.0,1.0,86,0.00,,,0.00,meteohub,2013-02-16 04:41:00,
2013-02-15 23:46:00,56.8,52.7,30.01,NNW,348,0.0,0.0,86,0.00,,,0.00,meteohub,2013-02-16 04:46:00,
2013-02-15 23:51:00,56.8,52.7,30.01,NNW,348,0.0,0.0,86,0.00,,,0.00,meteohub,2013-02-16 04:51:00,
2013-02-15 23:56:00,56.7,52.9,30.00,NNW,348,0.0,0.0,87,0.00,,,0.00,meteohub,2013-02-16 04:56:00,